Погода в Енисейске

Погода в Енисейске : погода сейчас, прогноз погоды и архив. Всё, что Вы хотите узнать о погоде в Енисейске!

Хотите узнать прогноз погоды в Енисейске? Тогда Вам сюда: Погода в Енисейске

Поиск расширенной информации на нашем сайте:

Другие новости

Новости СМИ2

Главная страница сайта

Новости сайта

02.10.2013

Напоминаем, что на нашем новом сайте вы можете получить высокодетализированные прогнозы погоды по пунктам России, СНГ и мира (включающие важные для авиации метеовеличины, такие как направление и скорость ветра, видимость, явления погоды, количество и форма облачности, нижняя и верхняя граница облачности), а также ознакомиться с разнообразными материалами по авиационной метеорологии и подборкой полезных ссылок на эту тему.

Сайт Метеоцентр.Азия посвящён разработке технологий оптимизации авиаметеорологического обслуживания, включая проектирование и перспективное создание нескольких автоматизированных авиаметеорологических систем:
- система выпуска высокодетальных прогностических карт явлений погоды для нижнего воздушного пространства по России и ближнему зарубежью;
- система верификации прогнозов TAF (выпускаемых синоптиками официальных АМСГ РФ и ближнего зарубежья) и AUTOTAF (выпускаемых сайтом Метеоцентр.Азия) - выявление ошибок, онлайн-сопоставление с фактической погодой METAR, автоматическое внесение коррективов в прогнозы при резком отклонении фактической погоды от прогноза, подсчёт оправдываемости прогнозов по элементам и в целом;
- система обработки, анализа и отображения авиаметеорологической информации для применения провайдерами метеорологической информации.


Погода в Енисейске - сегодня

Время (UTC), дата Ветер
(°,м/с) 
Видим.   Явления Облачность Т
(°С)
Тd
(°С)
f(%) Тe
(°С)
Pmin
(гПа)
dP
(гПа)
Po
(мм)
O2
(г/м3)
Тmin Tmax R s Состояние
почвы
03 20.01.17 110 (В) 4000 м  слаб. снег  9/0 средняя, верхняя 
[Ac trans|Ci sp]
-20.7 -22.6 85 -21  1036.7  0.1  769  337           
06 20.01.17 100 (В) 20000 м  {снег}  9/0 средняя, верхняя 
[Ac trans|Ci sp]
-19.3 -21.2 85 -20  1035.8  -0.9  768  335           
09 20.01.17 120 (ЮВ) 4000 м  слаб. снег  9/0 средняя, верхняя 
[Ac trans|Ci sp]
-17.7 -19.6 85 -18  1034.6  -1.1  767  332           
12 20.01.17 100 (В) 30000 м  {снег}  9/0 средняя, верхняя 
[Ac trans|Ci fib]
-19.9 -21.8 85 -20  1033  -1.6  766  335    -17.5  0.2     
15 20.01.17 110 (В) 30000 м  в посл. час снег  9/0 средняя, верхняя 
[Ac trans|Ci fib]
-19.8 -21.7 85 -20  1031.2  -1.8  765  334           
18 20.01.17 130 (ЮВ) 30000 м  {снег}  9/0 средняя, верхняя 
[Ac trans|Ci fib]
-20.7 -22.6 85 -21  1028.7  -2.5  763  334           
21 20.01.17 110 (В) 9000 м  слаб. снег  9/0 средняя, верхняя 
[Ac trans|Ci fib]
-18.9 -20.8 85 -19  1026.8  -1.8  762  331           
00 21.01.17 140 (ЮВ) 9000 м  слаб. снег  9/0 средняя, верхняя 
[Ac trans|Ci fib]
-17.2 -19.1 85 -20  1025.1  -1.7  760  329  -21.1    0.4  76  равномерный
сухой снег
100% 
03 21.01.17 130 (ЮВ) 4000 м  слаб. снег  10/0 средняя 
[Ac As]
-15.5 -17.4 85 -18  1023.1  -1.8  759  326           
06 21.01.17 140 (ЮВ) 4000 м  слаб. снег  10/0 средняя 
[Ac As]
-13.1 -15.1 85 -17  1021.6  -1.4  758  322           
09 21.01.17 130 (ЮВ) 4000 м  слаб. снег  9/0 средняя, верхняя 
[Ac trans|Ci sp]
-11.9 -13.9 85 -14  1020.3  -1.3  757  320           
12 21.01.17 150 (ЮВ) 9000 м  слаб. снег  10/0 средняя 
[Ac As]
-10.9 -12.2 90 -14  1018.4  -1.8  756  318    -10.8     
15 21.01.17 160 (Ю) 9000 м  слаб. снег  10/0 средняя 
[Ac As]
-9.5 -10.7 91 -12  1016.2  -2.1  754  316           
18 21.01.17 160 (Ю) 9000 м  слаб. снег  10/0 средняя 
[Ac As]
-9 -10.1 92 -12  1014.7  -1.4  753  315           
21 21.01.17 150 (ЮВ) 9000 м  слаб. снег  10/0 средняя 
[Ac As]
-7.5 -8.5 93 -9  1014.1  -0.6  753  313           
00 22.01.17 150 (ЮВ) 9000 м  слаб. снег  10/0 средняя 
[Ac As]
-6.1 -6.9 94 -8  1014.4  0.3  753  311  -10.9    78  равномерный
сухой снег
100% 
03 22.01.17 210 (ЮЗ) 4000 м  слаб. снег  10/0 средняя 
[Ac As]
-4.3 -5.9 89 -6  1015.6  1.3  754  309           
06 22.01.17 220 (ЮЗ) 4000 м  слаб. снег  9/0 средняя 
[Ac trans]
-4 -7 80 -7  1016.1  0.5  754  309           
09 22.01.17 210 (ЮЗ) 4000 м  слаб. ливневой снег  10/3 600 м кучево-дожд., средняя 
[Cb cap|Ac und]
-4.3 -7.3 80 -7  1017.2  1.1  755  310           
12 22.01.17 190 (Ю) 25000 м  позёмок{ливн. осадки}  10/3 600 м кучево-дожд., средняя 
[Cb cap|Ac und]
-5 -8.2 78 -7  1017.4  0.2  755  311    -3.4  0.0     
15 22.01.17 200 (Ю) 28000 м    10/3 600 м кучево-дожд., средняя 
[Cb cap|Ac und]
-5.2 -8.1 80 -8  1017.8  0.4  755  311           
18 22.01.17 180 (Ю) 30000 м    10/4 600 м кучево-дожд., средняя 
[Cb cap|Ac und]
-5.6 -9 77 -7  1017.3  -0.6  755  311           
21 22.01.17 160 (Ю) 30000 м    10/4 600 м кучево-дожд., средняя 
[Cb cap|Ac und]
-5.6 -9 77 -8  1017.2  -0.1  755  311           
00 23.01.17 140 (ЮВ) 30000 м    9/3 600 м кучево-дожд., средняя, верхняя 
[Cb cap|Ac trans|Ci sp]
-6.6 -9.4 80 -6  1016.8  -0.4  755  313  -6.6      76  равномерный
сухой снег
100% 
03 23.01.17 130 (ЮВ) 20000 м    9/0 средняя, верхняя 
[Ac trans|Ci fib]
-8.8 -10.8 85 -9  1016.3  -0.5  754  315  -10.2         
Время (UTC), дата Ветер
(°,м/с) 
Видим.   Явления Облачность Т
(°С)
Тd
(°С)
f(%) Тe
(°С)
Pmin
(гПа)
dP
(гПа)
Po
(мм)
O2
(г/м3)
Тmin Tmax R s Состояние
почвы

Для получения пояснительной информации подведите курсор к названию столбца.

ПОГОДА в Енисейске - архив

Всё, что Вы хотите узнать о погоде в Енисейске - удобно и подробно!

Выберите нужную дату (начиная с 1 января 2015* года) и нажмите кнопку "Найти".
Будут отображены архивные сводки погоды по пункту Енисейск, начиная с указанной даты.


Отображать данные в формате CSV (для использования в таблицах Excel)


Внимание! Наш архив погоды предназначен исключительно для личного некоммерческого использования в познавательных целях. Если Вам необходимы официальные справки о состоянии погоды (для производственных, юридических, коммерческих и т.п. целей), обращайтесь в органы Росгидромета.

*Примечание: данная дата относится к архиву по метеостанциям СССР (Россия, СНГ, Балтия).
Архив по метеостанциям Зарубежной Европы и Азии (кроме Китая) хранится 10 дней, по другим регионам земного шара (Китай, Африка, Америка, Австралия, Океания) - 1 день.

Енисейск - район местоположения метеостанции


Название, широта, долгота, высота метеостанции:
Енисейск 58.4°ш. 92.2°д. 79 м над ур. моря [Российская Федерация]

Дополнительная информация

В oтличие oт бoльшинства пoгoдных сайтoв мы публикуем пoдрoбную метеoинфoрмацию в детальнoм прoфессиoнальнoм фoрмате.

Характеристики температуры и влажнoсти вoздуха измеряются на высoте 2 м в тени вдали oт зданий и деревьев.
Скoрoсть ветра измеряется на высoте 10 м (на урoвне рoста челoвека скoрoсть ветра ниже в 1.5-2 раза). Если метеoстанция нахoдится в гoрoде или в лесу, тo скoрoсть ветра занижена на 2-4 м/с пo сравнению с oткрытым местoм. Скoрoсть ветра над акватoриями крупных рек и oзёр, а также на вершинах хoлмoв на 2-5 м/с выше, чем в oбычных услoвиях.
Атмoсфернoе давление в разных тoчках местнoсти мoжет значительнo oтличаться oт давления на метеoстанции, в зависимoсти oт услoвий рельефа (при пoдъёме на 10 м давление пoнижается примернo на 1 мм рт.ст.).